Погода в Верхнедвинске

Погода в Верхнедвинске : погода сейчас, прогноз погоды и архив. Всё, что Вы хотите узнать о погоде в Верхнедвинске!

Хотите узнать прогноз погоды в Верхнедвинске? Тогда Вам сюда: Погода в Верхнедвинске

Поиск расширенной информации на нашем сайте:

Другие новости

Новости СМИ2

Главная страница сайта

Новости сайта

03.07.2017

Напоминаем, что на нашем специализированном сайте Метеоцентр.Азия вы можете получить высокодетализированные автоматические прогнозы погоды по пунктам России, СНГ и мира в авиационном формате (включающие направление и скорость ветра, видимость, явления погоды, количество и форму облачности, нижнюю и верхнюю границу облачности).


Погода в Верхнедвинске - сегодня

Время (UTC), дата Ветер
(°,м/с) 
Видим.   Явления Облачность Т
(°С)
Тd
(°С)
f(%) Тe
(°С)
Pmin
(гПа)
dP
(гПа)
Po
(мм)
O2
(г/м3)
Тmin Tmax R s Состояние
почвы
21 12.08.18 240 (ЮЗ) 4{10}  12000 м    1/0 верхняя 
[Ci fib]
+14.6 +10.1 74 +15  1011.6  -0.2  747  284           
00 13.08.18 210 (ЮЗ) 10 км    4/0 средняя, верхняя 
[Ac trans|Ci fib]
+13.6 +10.4 81 +16  1011.3  -0.3  747  285           
03 13.08.18 220 (ЮЗ) 15000 м    9/0 средняя 
[Ac trans]
+14.2 +10.2 77 +16  1011.3  747  284           
09 13.08.18 240 (ЮЗ) 6{11}  15000 м    9/5 600 м кучево-дожд., средняя 
[Cb cap|Ac trans]
+15.8 +12 78 +19  1012  0.7  747  282           
15 13.08.18 230 (ЮЗ) 15000 м    9/5 600 м кучево-дожд., средняя 
[Cb cap|Ac trans]
+17 +13.2 78 +23  1011.9  -0.2  747  281           
18 13.08.18 тихо ()   12000 м    3/3 600 м 
[Sc]
+15.3 +12.8 85 +20  1011.8  -0.2  747  283    +17.8       
21 13.08.18 тихо ()   0500 м  туман  ясно 
+12.2 +12.2 100 +16  1012.6  0.6  748  286           
00 14.08.18 тихо ()   0100 м  туман  ?/?  
+9.6 +9.4 99 +10  1013.6  0.8  748  290           
03 14.08.18 тихо ()   0100 м  туман  ?/?  
+8.8 +8.7 99 +9  1013.8  0.1  748  291           
09 14.08.18 150 (ЮВ) 12000 м  {туман}  9/0 средняя 
[Ac trans]
+19.6 +15.5 77 +31  1013.2  -0.2  748  278           
15 14.08.18 120 (ЮВ) 15000 м    10/0 средняя 
[As trans]
+22.5 +14.9 62 +31  1010.3  -1.8  746  275           
18 14.08.18 090 (В) 12000 м    10/0 средняя 
[Ac As]
+19.1 +16.3 84 +31  1009.6  -0.9  746  277    +23.6       
21 14.08.18 180 (Ю) 12000 м    10/0 средняя 
[Ac As]
+20.1 +16.3 79 +31  1008.3  -1.2  745  276           
03 15.08.18 220 (ЮЗ) 10 км    9/4 600 м кучево-дожд., средняя 
[Cb cap|Ac trans]
+17.6 +16.7 94 +30  1007.2  -0.4  744  278      0.5     
06 15.08.18 250 (З) 10 км    9/5 600 м кучево-дожд., средняя 
[Cb cap|Ac trans]
+18.5 +15.8 84 +29  1007.9  0.7  744  277  +17.5    0.5     
09 15.08.18 250 (З) 15000 м    8/5 600 м средняя 
[Sc|Ac trans]
+21 +16.2 74 +32  1008.8  1.1  745  275           
18 15.08.18 250 (З) 12000 м  {ливн. осадки}  8/3 600 м кучево-дожд., средняя, верхняя 
[Cb cap|Ac trans|Ci fib]
+18.4 +17.6 95 +34  1011.5  1.1  747  278    +24.5     
21 15.08.18 тихо ()   10 км    ясно 
+16.7 +15.7 94 +27  1012.9  1.2  748  281           
03 16.08.18 тихо ()   0300 м  туман  ?/?  
+15.6 +15.6 100 +25  1015.4  1.4  750  282      0.1     
06 16.08.18 280 (З) 4000 м  ливневой дождь{туман}  9/9 120 м кучево-дожд. 
[Cb cap]
+17 +16.2 95 +29  1017  1.6  751  281  +15.3    0.2     
15 16.08.18 010 (С) 10 км    4/3 600 м средняя, верхняя 
[Cu med, cong|Ac trans|Ci fib]
+21 +14.9 68 +29  1019.6  0.2  753  279         
18 16.08.18 020 (С) 10 км    3/3 600 м 
[Sc diur, vesp]
+17.5 +15.1 86 +28  1020.4  0.7  754  282    +22.1     
21 16.08.18 030 (СВ) 10 км    ясно 
+14.6 +14 96 +23  1021.3  0.7  754  286           
03 17.08.18 030 (СВ) 4000 м  дымка  8/6 600 м средняя 
[Sc|Ac trans]
+13.7 +13.5 99 +21  1022.3  0.4  755  287           
06 17.08.18 060 (СВ) 10 км    8/5 600 м средняя 
[Sc|Ac trans]
+15.7 +14.7 94 +25  1022.6  0.4  755  285  +12.7         
Время (UTC), дата Ветер
(°,м/с) 
Видим.   Явления Облачность Т
(°С)
Тd
(°С)
f(%) Тe
(°С)
Pmin
(гПа)
dP
(гПа)
Po
(мм)
O2
(г/м3)
Тmin Tmax R s Состояние
почвы

Для получения пояснительной информации подведите курсор к названию столбца.

ПОГОДА в Верхнедвинске - архив

Всё, что Вы хотите узнать о погоде в Верхнедвинске - удобно и подробно!

Выберите нужную дату (начиная с 1 января 2015* года) и нажмите кнопку "Найти".
Будут отображены архивные сводки погоды по пункту Верхнедвинск, начиная с указанной даты.


Отображать данные в формате CSV (для использования в таблицах Excel)


Внимание! Наш архив погоды предназначен исключительно для личного некоммерческого использования в познавательных целях. Если Вам необходимы официальные справки о состоянии погоды (для производственных, юридических, коммерческих и т.п. целей), обращайтесь в органы Росгидромета.

*Примечание: данная дата относится к архиву по метеостанциям СССР (Россия, СНГ, Балтия).
Архив по метеостанциям Зарубежной Европы и Азии (кроме Китая) хранится 10 дней, по другим регионам земного шара (Китай, Африка, Америка, Австралия, Океания) - 1 день.

Верхнедвинск - район местоположения метеостанции


Название, широта, долгота, высота метеостанции:
Верхнедвинск 55.8°ш. 27.9°д. 132 м над ур. моря [Беларусь]

Дополнительная информация

В oтличие oт бoльшинства пoгoдных сайтoв мы публикуем пoдрoбную метеoинфoрмацию в детальнoм прoфессиoнальнoм фoрмате.

Характеристики температуры и влажнoсти вoздуха измеряются на высoте 2 м в тени вдали oт зданий и деревьев.
Скoрoсть ветра измеряется на высoте 10 м (на урoвне рoста челoвека скoрoсть ветра ниже в 1.5-2 раза). Если метеoстанция нахoдится в гoрoде или в лесу, тo скoрoсть ветра занижена на 2-4 м/с пo сравнению с oткрытым местoм. Скoрoсть ветра над акватoриями крупных рек и oзёр, а также на вершинах хoлмoв на 2-5 м/с выше, чем в oбычных услoвиях.
Атмoсфернoе давление в разных тoчках местнoсти мoжет значительнo oтличаться oт давления на метеoстанции, в зависимoсти oт услoвий рельефа (при пoдъёме на 10 м давление пoнижается примернo на 1 мм рт.ст.).